COSMOS 2251 DEB, 33821

Orbit data source: Space-Track

COSMOS 2251 DEB, 33821 is space debris in LEO originally from a launch on Wed, 16 Jun 1993 UTC launched from the Plesetsk Missile And Space Complex (PKMTR). The debris from Iridium 33, an American commercial communications satellite, has been tracked extensively since its accidental collision with the defunct Russian satellite Cosmos 2251 in 2009. This event, occurring at high speed in low Earth orbit (LEO), generated thousands of pieces of space debris, significantly increasing the risk of further collisions. The Iridium 33 debris cloud has impacted space traffic management and orbital debris mitigation strategies, making it a subject of ongoing study in space situational awareness.

Loading next visibility...
Identifier
33821, 1993-036BN
Orbit
LEO
Country
Flag of CISCIS
Related business
Manufacturer
Unknown
Mission
Spacecraft
Bus & Motor
Unknown
Mass
Unknown
Launch date (UTC)
1993-06-16 (33 years ago)
Launch vehicle
Unknown
Launch site
Plesetsk Missile And Space Complex (PKMTR)
Object type
Payload
Rocket body
Debris
Shape & HBR
Unknown shape, 0.2 m
Radar Cross Section
Small (<0.1 m²)

Expand to show TLE details & history
Last TLE update: 5 hours ago

TLE from 5 hours ago
0 COSMOS 2251 DEB
1 33821U 93036BN  26124.19159738  .00031755  00000-0  89164-3 0  9998
2 33821  74.0266 199.2638 0039275 197.0562 162.9327 15.35611758771803
Epoch: 2026-05-04T04:35Z
TLE epoch observation values (Epoch: 2026-05-04T04:35:54.013Z)
Latitude
-0.00004°
Longitude
-91.7956°
Altitude
487.518 km
Speed
7.607 km/s
True Right ascension
13h 17m 03s
True Declination
0° 00' 00"
Sunlit
Object was in full shadow at epoch
Visualization orbit readout
Latitude
Unknown
Longitude
Unknown
Altitude
Unknown
Speed
Unknown
Apparent Right ascension
Unknown
Apparent Declination
Unknown
Sunlit
N/A
Visualization observer readout
Local Sidereal Time
17:37:24
Azimuth
Unknown
Elevation
Unknown
Doppler factor
Unknown
Orbital elements
Apogee altitude
483.463 km
Perigee altitude
429.776 km
Semi-major axis
6,834.757 km
Eccentricity
0.00393
Inclination
74.0266°
RAAN
199.2638°
Arg. of periapsis
197.0562°
True anomaly
163.06417°
Mean anomaly
162.9327°
Eccentric anomaly
162.9985°
Mean motion
3.84113 °/min
Orbital period
93.72 mins
BSTAR
0.00089164
Loading maneuver chart data...
Computing Atmospheric mass density...

Documentation

Showing up to 5 results
|